STARLINK-36473, 67325

Orbit data source: Space-Track

STARLINK-36473, 67325 is a payload satellite owned by SpaceX/Seattle (US) in LEO that was launched on Sun, 04 Jan 2026 UTC via an FALCON 9 launch vehicle from the Air Force Eastern Test Range (AFETR). Payload-class satellites include a variety of spacecraft equipped with specific instruments for various scientific and technological missions. These include communications satellites like Starlink; space stations such as the ISS; scientific satellites like the Hubble; Earth observation satellites from companies like Planet Labs, Umbra, and HawkEye 360; GPS; miniature CubeSats for education and research; and military/defense satellites.

Loading next visibility...
Identifier
67325, 2026-002W
Orbit
LEO
Country
Flag of USUS
Related business
Manufacturer
SpaceX/Seattle
Mission
Operational Commercial Communications
Bus & Motor
STARLINK V2MO, Unknown motor
Mass
575 kg wet, ~530 kg dry
Launch date (UTC)
2026-01-04 (2 months ago)
Launch vehicle
FALCON 9
Launch site
Air Force Eastern Test Range (AFETR)
Object type
Payload
Rocket body
Debris
Shape & HBR
Box + 2 Pan, 17.7 m
Radar Cross Section
36.964 m²

Expand to show TLE details & history
Last TLE update: 10 hours ago

TLE from 10 hours ago
0 STARLINK-36473
1 67325U 26002W   26062.82656481  .00051157  00000-0  18539-2 0  9996
2 67325  42.9994 358.2519 0000500 227.1221 132.9589 15.27610913 10347
Epoch: 2026-03-03T19:50Z
TLE epoch observation values (Epoch: 2026-03-03T19:50:15.199Z)
Latitude
-0°
Longitude
-100.91148°
Altitude
482.966 km
Speed
7.626 km/s
True Right ascension
23h 53m 00s
True Declination
0° 00' 00"
Sunlit
Object was in daylight at epoch
Visualization orbit readout
Latitude
Unknown
Longitude
Unknown
Altitude
Unknown
Speed
Unknown
Apparent Right ascension
Unknown
Apparent Declination
Unknown
Sunlit
N/A
Visualization observer readout
Local Sidereal Time
09:14:50
Azimuth
Unknown
Elevation
Unknown
Doppler factor
Unknown
Orbital elements
Apogee altitude
485.245 km
Perigee altitude
484.559 km
Semi-major axis
6,863.039 km
Eccentricity
0.00005
Inclination
42.9994°
RAAN
358.2519°
Arg. of periapsis
227.1221°
True anomaly
132.96309°
Mean anomaly
132.9589°
Eccentric anomaly
132.961°
Mean motion
3.81741 °/min
Orbital period
94.3 mins
BSTAR
0.0018539
Loading maneuver chart data...
Computing Atmospheric mass density...
Loading historical data...
Loading historical data...
Loading historical data...
Loading historical data...
Loading historical data...
Loading historical data...
Loading historical data...

Documentation

Showing up to 5 results
|